CUTE-1 (CO-55) 1 27844U 03031E 26120.61928520 .00000312 00000+0 15395-3 0 9997 2 27844 98.6753 129.7745 0008875 330.4565 29.6111 14.24305462184907 CUBESAT XI-IV (CO-57) 1 27848U 03031J 26120.58395695 .00000262 00000+0 13413-3 0 9991 2 27848 98.6788 129.4909 0009129 349.8845 10.2148 14.23594639184604 CUBESAT XI-V 1 28895U 05043F 26120.43036116 .00001517 00000+0 24696-3 0 9992 2 28895 98.2930 275.0681 0013971 2.5431 357.5844 14.72503421 94727 CUTE-1.7+APD II (CO-65) 1 32785U 08021C 26120.57822720 .00004835 00000+0 30988-3 0 9990 2 32785 97.8249 101.0318 0008843 179.6083 180.5154 15.08992068978014 CANX-2 1 32790U 08021H 26120.43172018 .00004533 00000+0 32142-3 0 9998 2 32790 97.8601 99.3031 0009856 198.2344 161.8529 15.05266181977626 SEEDS II (CO-66) 1 32791U 08021J 26120.45175439 .00020092 00000+0 67012-3 0 9993 2 32791 97.7523 116.1352 0005105 108.3124 251.8672 15.31103491979987 SWISSCUBE 1 35932U 09051B 26120.48017014 .00001121 00000+0 23141-3 0 9991 2 35932 98.4066 27.5346 0007117 12.5716 347.5661 14.62386422882189 BEESAT-1 1 35933U 09051C 26120.25965323 .00000933 00000+0 19747-3 0 9999 2 35933 98.3995 27.0453 0005916 28.7361 331.4164 14.61639513882185 ITUPSAT1 1 35935U 09051E 26120.27721315 .00000867 00000+0 18924-3 0 9996 2 35935 98.4079 26.3052 0008282 35.5769 324.5981 14.60366036881742 TISAT 1 1 36799U 10035E 26120.26730113 .00022796 00000+0 78928-3 0 9999 2 36799 98.0691 62.6468 0004404 74.6352 285.5373 15.29870265860372 AEROCUBE 4.5A 1 38767U 12048K 26120.58440208 .00149720 00000+0 10003-2 0 9996 2 38767 64.6321 197.8380 0023035 215.4484 144.5138 15.74269710365127 STRAND-1 1 39090U 13009E 26120.43426229 .00000307 00000+0 11773-3 0 9998 2 39090 98.3914 301.8464 0009001 21.7835 338.3733 14.37134399690200 BRITE-AUSTRIA 1 39091U 13009F 26120.49633205 .00000190 00000+0 79299-4 0 9997 2 39091 98.3984 301.1149 0010704 28.9627 331.2151 14.36522493690202 NEE-01 PEGASO 1 39151U 13018B 26120.36328224 .00002498 00000+0 24334-3 0 9994 2 39151 98.1150 262.9595 0011778 326.9147 33.1334 14.93424256703567 POPACS 2 1 39269U 13055E 26120.24926722 .00016897 00000+0 28932-3 0 9995 2 39269 80.9948 199.0203 0421307 347.9507 11.1856 14.90056733656079 POPACS 3 1 39270U 13055F 26120.41017467 .00012157 00000+0 29379-3 0 9994 2 39270 80.9998 280.9477 0555400 215.3062 141.0156 14.54929118631609 ZACUBE-1 (TSHEPISOSAT) 1 39417U 13066B 26120.40955899 .00005584 00000+0 43585-3 0 9999 2 39417 97.8125 82.4893 0043674 53.2749 307.2473 15.00793807673569 WNISAT-1 1 39423U 13066H 26120.37859379 .00000620 00000+0 12108-3 0 9991 2 39423 97.7138 272.9458 0163681 22.9869 337.8549 14.58004424659760 TRITON-1 1 39427U 13066M 26120.54800328 .00002863 00000+0 34682-3 0 9996 2 39427 97.8279 31.4421 0091268 30.4880 330.1594 14.81475148667033 GOMX-1 1 39430U 13066Q 26120.51682591 .00001486 00000+0 23032-3 0 9994 2 39430 97.6519 323.9831 0127688 230.2625 128.7276 14.69275071662918 CUBEBUG-2 (LO-74) 1 39440U 13066AA 26120.42970364 .00002755 00000+0 25963-3 0 9998 2 39440 97.8881 69.2303 0057708 184.2052 175.8690 14.93419487669866 NEE-02 KRYSAOR 1 39441U 13066AB 26120.34989589 .00001824 00000+0 20515-3 0 9993 2 39441 97.8874 59.9202 0065122 225.7529 133.8330 14.86444932669097 FUNCUBE-1 (AO-73) 1 39444U 13066AE 26120.45083755 .00009895 00000+0 62276-3 0 9994 2 39444 97.8252 90.9324 0037046 9.4409 350.7507 15.08828815672460 UWE-3 1 39446U 13066AG 26120.41818920 .00004687 00000+0 40581-3 0 9991 2 39446 97.8667 76.1969 0051045 118.0488 242.5909 14.96624293670431 BRITE-CA1 (TORONTO) 1 40020U 14033L 26120.33988805 .00001028 00000+0 16144-3 0 9991 2 40020 97.9664 250.1718 0079974 70.5404 290.4423 14.72606461635172 DUCHIFAT-1 1 40021U 14033M 26120.11081618 .00081743 00000+0 11439-2 0 9997 2 40021 98.0526 172.8560 0004626 220.2284 139.8628 15.56524933648251 NANOSATC-BR1 1 40024U 14033Q 26120.61439851 .00016907 00000+0 58540-3 0 9996 2 40024 98.0760 148.8375 0003220 21.7492 338.3883 15.29943501646708 QB50P1 1 40025U 14033R 26120.48778258 .00009236 00000+0 46376-3 0 9990 2 40025 98.0983 128.3154 0009745 39.1571 321.0364 15.17502796645798 QB50P2 1 40032U 14033Y 26120.47443402 .00007889 00000+0 43172-3 0 9990 2 40032 98.0746 114.4111 0006992 351.9123 8.1994 15.14532566645440 PERSEUS-M2 1 40037U 14033AD 26120.62296056 .00001850 00000+0 17287-3 0 9993 2 40037 97.9940 70.2107 0013647 95.6677 264.6100 14.95364015643675 PERSEUS-M1 1 40039U 14033AF 26120.39888044 .00002398 00000+0 22184-3 0 9993 2 40039 97.9622 63.7615 0013376 95.0969 265.1779 14.95471792643491 POLYITAN-1 1 40042U 14033AJ 26120.51485045 .00017919 00000+0 58882-3 0 9994 2 40042 98.0979 142.3240 0005713 325.5416 34.5453 15.31614520646291 TIGRISAT 1 40043U 14033AK 26120.41142581 .00002385 00000+0 28054-3 0 9998 2 40043 97.7766 271.5410 0048415 230.2458 129.4487 14.84955160638534 AEROCUBE 6A 1 40045U 14033AM 26120.45846278 .00007452 00000+0 63336-3 0 9990 2 40045 97.7179 287.9457 0039341 174.0730 186.0966 14.97545256639472 AEROCUBE 6B 1 40046U 14033AN 26120.43988175 .00007147 00000+0 58641-3 0 9996 2 40046 97.7175 287.6234 0037241 165.5721 194.6575 14.98979113639601 CANX-4 1 40055U 14034C 26120.59478713 .00000955 00000+0 13001-3 0 9997 2 40055 98.3187 354.1475 0013165 158.6980 201.4782 14.81175663637488 CANX-5 1 40056U 14034D 26120.59376889 .00000951 00000+0 12937-3 0 9992 2 40056 98.3190 354.1873 0013166 158.8846 201.2911 14.81192635628298 UKUBE-1 1 40074U 14037F 26120.55604081 .00008594 00000+0 49385-3 0 9997 2 40074 98.4239 118.8554 0001374 40.6172 319.5159 15.12787949641354 BRITE-PL2 (HEWELIUSZ) 1 40119U 14049B 26120.23371841 .00001959 00000+0 18715-3 0 9991 2 40119 97.9035 231.8856 0012771 268.1052 91.8705 14.94410075634283 AEROCUBE 5C 1 40965U 15058B 26120.22352751 .00003619 00000+0 32447-3 0 9992 2 40965 64.7689 51.7685 0129616 82.0942 279.4858 14.91168119358503 AEROCUBE 7 1 40966U 15058C 26120.48901884 .00005069 00000+0 41098-3 0 9991 2 40966 64.7646 34.1721 0119485 80.7597 280.7008 14.95334695358822 FOX-1A (AO-85) 1 40967U 15058D 26120.25537374 .00003818 00000+0 34672-3 0 9996 2 40967 64.7757 67.9049 0128629 75.3677 286.1655 14.90672462106429 SINOD-D 1 1 40968U 15058E 26120.20514808 .00005529 00000+0 44736-3 0 9992 2 40968 64.7768 49.1263 0117135 72.2571 289.1287 14.95504706109484 SNAP-3 ALICE 1 40970U 15058G 26120.59192175 .00084384 00000+0 13756-2 0 9999 2 40970 64.7535 267.2655 0031635 40.3462 320.0018 15.51564596109485 LMRST-SAT 1 40971U 15058H 26120.26570166 .00003597 00000+0 32936-3 0 9993 2 40971 64.7766 64.1208 0130477 77.3783 284.1882 14.90299909106414 SNAP-3 EDDIE 1 40972U 15058J 26120.61775884 .00085640 00000+0 13389-2 0 9996 2 40972 64.7457 258.2370 0032293 43.9855 316.3848 15.52692563111625 PROPCUBE 3 1 40973U 15058K 26120.21726211 .00004614 00000+0 38704-3 0 9994 2 40973 64.7706 42.3713 0122738 78.9657 282.5232 14.93911253107639 BISONSAT 1 40974U 15058L 26119.93288010 .00013783 00000+0 68651-3 0 9993 2 40974 64.7610 329.5288 0077891 68.7757 292.1664 15.15159943108304 SNAP-3 JIMI 1 40975U 15058M 26120.11841502 .00007501 00000+0 52201-3 0 9992 2 40975 64.7676 11.7992 0104776 75.2456 286.0243 15.01772017107000 PROPCUBE 1 (FLORA) 1 40976U 15058N 26120.31093650 .00003376 00000+0 32215-3 0 9997 2 40976 64.7743 83.5827 0129332 79.6456 281.9204 14.88939762109136 SINOD-D 3 1 40977U 15058P 26120.24051409 .00004990 00000+0 42525-3 0 9994 2 40977 64.7732 65.4955 0117801 77.2452 284.1796 14.93630621107591 HORYU-4 1 41340U 16012D 26120.52098681 .00145472 00000+0 94490-3 0 9993 2 41340 30.9895 62.4942 0006347 279.9281 80.0658 15.74401799563258 RAVAN 1 41849U 16067B 26120.60289956 .00044643 00000+0 78248-3 0 9994 2 41849 97.9954 4.8398 0006562 152.5381 207.6217 15.50430899520317 CELTEE 1 1 41850U 16067C 26120.59376908 .00005061 00000+0 24409-3 0 9999 2 41850 98.0736 343.9171 0002268 73.4787 286.6695 15.19206245518657 OPTICUBE 04 1 41851U 16067D 26120.55204174 .00001851 00000+0 11987-3 0 9991 2 41851 98.0748 330.3444 0014235 279.8159 80.1461 15.09455441517982 AEROCUBE 8D 1 41852U 16067E 26120.62056693 .00007551 00000+0 31759-3 0 9993 2 41852 98.0750 347.1834 0002212 319.3067 40.8003 15.23725448518827 AEROCUBE 8C 1 41853U 16067F 26120.58740817 .00007555 00000+0 31549-3 0 9998 2 41853 98.0619 344.4376 0004426 211.5231 148.5740 15.23959839518814 CORVUS BC2 1 42846U 17042X 26120.42656431 .00002931 00000+0 20500-3 0 9994 2 42846 97.4013 283.6575 0011512 275.8744 84.1171 15.05988097479872 CORVUS BC1 1 42847U 17042Y 26120.42658526 .00002569 00000+0 17942-3 0 9995 2 42847 97.4046 284.4399 0010479 249.0112 110.9995 15.06154630479900 MAKERSAT 0 1 43016U 17073D 26120.60151547 .00024751 00000+0 69880-3 0 9994 2 43016 97.4698 2.8091 0113686 82.3773 279.0362 15.30031035459181 SIRION PATHFINDER-2 1 43759U 18099B 26120.60549649 .00005360 00000+0 29752-3 0 9990 2 43759 97.4296 170.7995 0010554 103.8274 256.4133 15.14105649405420 CORVUS BC4 1 43767U 18099K 26120.61439112 .00004615 00000+0 27149-3 0 9993 2 43767 97.4109 164.9908 0009099 155.9456 204.2202 15.12100520405219 M2 PATHFINDER 1 45727U 20037E 26120.49510591 .00001968 00000+0 14515-3 0 9994 2 45727 97.8150 311.1942 0010672 319.4716 40.5714 15.04458984318321 NETSAT-4 1 46504U 20068U 26120.59060470 .00018186 00000+0 42410-3 0 9994 2 46504 97.8620 125.0671 0007447 122.2295 237.9674 15.42275168308437 NETSAT-3 1 46505U 20068V 26120.55932953 .00018469 00000+0 44884-3 0 9996 2 46505 97.8664 123.3129 0006996 134.7586 225.4230 15.41029133308342 NETSAT-1 1 46506U 20068W 26120.45290348 .00013809 00000+0 42902-3 0 9993 2 46506 97.8749 118.0758 0005753 154.8441 205.3082 15.33470619307980 NETSAT-2 1 46507U 20068X 26120.55974618 .00022840 00000+0 50262-3 0 9997 2 46507 97.8633 124.7715 0005486 140.3929 219.7720 15.43973047308381 GREENCUBE (IO-117) 1 53109U 22080E 26119.47010391 -.00000003 00000+0 00000+0 0 9996 2 53109 70.1461 315.1961 0008895 300.7857 59.1927 6.42583316 88934 SITRO-AIS 5 (KATYS) 1 57176U 23091L 26120.61921788 .00011805 00000+0 42928-3 0 9996 2 57176 97.5095 184.0997 0009976 268.4782 91.5315 15.28367367157071 SITRO-AIS 6 (CHIRKIN) 1 57192U 23091AC 26120.62301549 .00005791 00000+0 23390-3 0 9991 2 57192 97.5102 183.4666 0010292 273.4017 86.6044 15.25117403157035 SITRO-AIS 8 (ANOKHIN) 1 57193U 23091AD 26120.58563362 .00014450 00000+0 48613-3 0 9997 2 57193 97.5090 185.4685 0009201 263.8252 96.1941 15.30863928157169 SITRO-AIS 7 (FARTUSHNIY) 1 57194U 23091AE 26120.61679825 .00005489 00000+0 22377-3 0 9995 2 57194 97.5100 183.3088 0010148 274.7200 85.2878 15.24829870157026 SITRO-AIS 10 (BURDAEV) 1 57199U 23091AK 26120.61412739 .00020147 00000+0 56103-3 0 9991 2 57199 97.5110 190.0816 0005903 231.2503 128.8214 15.36823572157454 SITRO-AIS 9 (SHCHUKIN) 1 57201U 23091AM 26120.62621461 .00018929 00000+0 53486-3 0 9996 2 57201 97.5108 189.8594 0006129 232.2183 127.8506 15.36379377157441 SITRO-AIS 12 (SMIRENNIY) 1 57204U 23091AQ 26120.62567180 .00019477 00000+0 54542-3 0 9999 2 57204 97.5121 190.2968 0005941 224.8109 135.2656 15.36656613157468 SITRO-AIS 11 (SHEFFER) 1 57208U 23091AU 26120.52135527 .00019950 00000+0 55177-3 0 9999 2 57208 97.5119 190.4084 0005887 224.7773 135.2996 15.37038388157466 SITRO-AIS 25 1 59066U 24039R 26120.60030524 .00005553 00000+0 43264-3 0 9994 2 59066 95.3930 202.3993 0147271 133.9443 227.4045 14.93140182117628 SITRO-AIS 26 1 59067U 24039S 26120.59532097 .00005483 00000+0 42911-3 0 9995 2 59067 95.3931 202.3028 0147606 134.4663 226.8746 14.92947008117612 SITRO-AIS 27 1 59068U 24039T 26120.64575694 .00006849 00000+0 53048-3 0 9992 2 59068 95.3930 202.5873 0146849 133.0010 228.3633 14.93354229117644 SITRO-AIS 28 1 59071U 24039U 26120.62429709 .00006104 00000+0 47300-3 0 9997 2 59071 95.3928 202.6175 0146605 132.9965 228.3658 14.93386793117646 GRBBETA 1 60237U 24128C 26120.16300868 .00004275 00000+0 29747-3 0 9997 2 60237 61.9921 24.7077 0046691 124.5499 236.0014 15.06246315 99035 OOV-CUBE (TUBSAT-30) 1 60240U 24128F 26120.34303327 .00002536 00000+0 20062-3 0 9993 2 60240 61.9968 32.3719 0050141 123.2570 237.3341 15.02531007 98924 ROBUSTA-3A (MEDITERRAN*) 1 60243U 24128J 26120.43079215 .00008504 00000+0 50698-3 0 9991 2 60243 61.9886 17.0301 0047317 118.5531 242.0339 15.10923460 99207 LASARSAT 1 62391U 24247Q 26120.19024351 .00030532 00000+0 67229-3 0 9997 2 62391 44.9736 171.3022 0005102 19.6692 340.4393 15.43455341 75893 CROCUBE 1 62394U 24247T 26120.49896852 .00032146 00000+0 67185-3 0 9990 2 62394 44.9713 167.6009 0004782 21.0818 339.0268 15.44973771 75960 FORESAIL-1 PRIME 1 66778U 25276DS 26120.15473622 .00005636 00000+0 27843-3 0 9993 2 66778 97.4218 194.3169 0000809 269.1808 90.9333 15.18253894 23111 KNACKSAT-2 1 67683U 98067XZ 26120.43136678 .00039416 00000+0 55885-3 0 9995 2 67683 51.6295 173.9221 0012627 20.5664 339.5833 15.55969614 12835